200 serials | serials | driver booster pro 5.0.3 .360 serial key license registration key

Date Name Success Rate
2012-12-12 08:14:23 Driver Checker 2.7.4 (20 years license) 78%
2009-10-22 23:49:42 Registry Booster Serial 60%
2011-09-08 13:12:14 Virtual Serial Ports Driver XP v4.0 68%
2012-12-12 08:15:21 Driver GENIUS 10.0.0.712 VALID SERIAL 80%
2009-10-17 06:21:40 Driver Genius Professional Edition 2007 V7.0.2358 SERIAL 76%
2009-10-22 23:49:42 Registry Mechanic 6.0.0.780(License Name+License Code) 65%
2011-09-08 10:42:09 DAS Registration 1.5.2 59%
2011-09-08 10:42:09 DAS Registration For CW5 0%
2011-09-08 10:42:09 DAS Registration v1.5.2 0%
2011-09-08 12:46:52 Serials v7 1 63%
2009-10-17 06:27:02 Lazarus Registration DLL V1.0 55%
2009-10-22 23:48:48 MemoriesonTV Registration 0%
2009-10-22 23:49:42 Registration Wizard 68%
2011-09-08 10:06:47 AnetHelpTool v4.02 Registration 52%
2011-09-08 10:22:13 ByeLines Registration 85%
2011-09-08 10:57:42 Ftgate Registration 78%
2011-09-08 11:15:16 Infodex v2.10 Registration 45%
2011-09-08 11:25:08 Lazarus Registration DLL v1.0 47%
2011-09-08 11:27:46 Mac Opener v3.0 Registration 57%
2011-09-08 11:32:59 mIRC v4.5+ Registration 35%
2011-09-08 11:32:59 mIRC v4.52 Registration 51%
2011-09-08 12:37:02 Quant v2.0 Registration 52%
2011-09-08 12:41:14 Registration Suite 1.0 56%
2011-09-08 12:41:14 Registration Suite v1.0 60%
2011-09-08 12:41:14 Registration Wizard Pro 5.01 46%
2011-09-08 12:41:14 Registration Wizard Pro v5.01 60%
2011-09-08 13:18:59 WinHacker 95 v2.02 Registration 57%
2012-12-13 05:12:00 Registration Key : 526EFEF086E09600449E667EA2DAE8E2E6D642BC 65%
2009-10-23 07:01:10 1000 Serials 2.0 54%
2009-10-22 23:27:23 Ashampoo Serials 0%
2009-10-22 23:45:52 Cinema 4D ALL SERIALS 60%
2009-10-22 23:48:59 Nero 9.2.6.0 All Serials 33%
2009-10-22 23:49:51 Safire Serials V 7.5 0%
2009-10-22 23:49:52 Serials 2000 7.1 57%
2009-10-22 23:49:52 Serials 2000 7_1 0%
2009-10-22 23:49:52 Serials 2005 54%
2009-10-22 23:50:09 The Bitter End Serials 33%
2011-09-08 10:54:17 FIFA 07 EA Serials All 0%
2011-09-08 10:57:51 full 150 serials all 84%
2011-09-08 11:43:06 Nod32 all serials any 53%
2011-09-08 12:46:52 Serials 2000 6.0 38%
2011-09-08 12:46:52 Serials 2000 7_1 55%
2011-09-08 12:46:52 Serials 2000 v7.1 v7.1(2) 20%
2011-09-08 13:00:15 Surfers Serials 51%
2012-12-11 23:19:28 Acdsee Pro 5 Serials Key 0%
2012-12-11 23:47:59 Adobe CS5 All Serials 76%
2012-12-12 05:53:00 Cinema 4D r12 all serials 100%
2012-12-12 06:48:52 Crysis Serials 60%
2012-12-12 22:45:18 NOD32 Serials 4.2.67.10 0%
2012-12-13 15:18:15 Uniblue Serials 70%
2009-10-22 23:27:21 Ardamax Keylogger 2.9 Registration 56%
2009-10-22 23:48:49 Microsoft Registration Hacker - 39%
2009-10-22 23:49:57 SoudForge ALL (No Registration Requiered) 0%
2009-10-22 23:50:26 Valve's Registration Armor Key-Gen 60%
2011-09-08 10:21:42 Browserola v1.01 Temp. Registration 0%
2011-09-08 10:56:11 FontLook v3.1 Registration Code 69%
2011-09-08 11:31:51 Microsoft Registration Hacker 0%
2011-09-08 11:31:51 Microsoft Registration Hacker - 0%
2011-09-08 11:31:51 Microsoft Registration HackerMSREGHACK 0%
2011-09-08 11:32:07 Microstation v5.xx.xx & 95 FULL REGISTRATION 73%
2011-09-08 11:42:43 Nic O'Matic 1.6 Registration Code 65%
2011-09-08 11:42:43 Nic O'Matic v1.6 Registration Code 52%
2011-09-08 12:34:57 PolyTrans V1.2E Registration Activator CD-Key 65%
2011-09-08 12:34:57 PolyView v2.9b16 Registration 0%
2011-09-08 12:54:09 Time Registration (German) 1.10 0%
2011-09-08 12:59:30 Super Collapse Registration 94%
2011-09-08 13:23:15 Yipe! II for Windows Registration #154 0%
2012-12-13 08:49:53 Softwarenetz Time Registration v1.10 0%
2012-12-13 08:49:56 Softwarenetz Time Registration v1.14 0%
2012-12-13 15:34:10 Valve's Registration Armor Key-Gen 0%
2009-10-22 23:27:13 Adobe CS4 All Serials From Poppinjeremy 19%
2009-10-22 23:27:14 Adobe Photoshop CS 8.0 (12 Serials) 83%
2009-10-22 23:27:14 Adobe Photoshop CS4 - 30 SERIALS 57%
2009-10-22 23:27:17 All The SIMS SERIALS!!! (WORKING!!) 13%
2009-10-22 23:45:54 Company Of Heroes (5 Serials) 34%
2009-10-22 23:49:11 Office 2003 All Serials 0%
2011-09-08 11:34:49 MPEG Encoder v1.1.0 Serials 0%
2011-09-08 12:24:54 MPEG Encoder v1.1.0 Serials 0%
2011-09-08 12:46:52 serials 2000 7.2003.12. 0%
2011-09-08 12:46:52 serials 2000 7.2005.05.15 80%
2011-09-08 13:00:15 Surfers Serials 06-2002 0%
2012-12-11 23:54:55 Adobe Photoshop CS4 a few serials 59%
2012-12-12 11:00:36 Eset NOD32 serials (3 & 4) 0%
2009-10-22 23:48:17 Internet Download Manager Registration 55%
2011-09-08 10:25:56 Cheyenne Bitware V4.0 Registration Number 66%
2011-09-08 11:31:51 Microsoft Registration Hacker MSREGHACK 69%
2011-09-08 11:31:51 Microsoft Visual Basic 5 registration cd key 72%
2011-09-08 12:54:14 TimeSlips 10.5 enterprise - with registration code! 0%
2012-12-12 08:07:32 Download avast 5.0.667 Antivirus registration 0%
2012-12-13 05:12:00 Registration Code For PDFZilla Giveaway 42%
2012-12-13 05:12:00 Registration key for x-3gp-video-converter-38540 78%
2012-12-13 13:12:40 Total Image Converter Registration Key 56%
2009-10-17 06:22:11 Easy-Hide-IP 1.4 Serials By AT4RE 53%
2009-10-22 23:27:14 Adobe Photoshop CS4 Extended Serials 65%
2009-10-22 23:48:17 Internet.Download.Manager.4.02.3 (by Www.serials.ws) 80%
2009-10-22 23:49:02 Norton Antivirus 2009 Serials 0%
2009-10-22 23:50:33 Warhammer 40k Drak Crusade Serials 0%
2009-10-22 23:50:36 Windows 7 Beta 64 Bit Edition ALL Serials 0%
2011-09-08 10:55:00 Fire Graphic Regional Serials 8.0.x 0%
2012-12-12 03:47:34 Battlefield 3 - Multiplayer Serials (NO_CRACKED) 64%
2012-12-12 03:54:57 BenVista PhotoZoom Pro V 2.3.X (Legit Serials) 0%
2012-12-12 06:21:40 ConvertXToDVD (Legit Serials From Vso-software.fr) 0%
2012-12-12 21:29:11 NaviCat Premium 8.2.X (Legit Serials) 0%
2012-12-12 21:54:29 Nero Multimedia Suite 10 Serials 56%
2012-12-13 13:10:18 Topaz Simplify 1.X (Legit Serials) 0%
2011-09-08 11:30:16 MediaBlaze 98 v1.01 Win95/NT User: delphic Registration 0%
2012-12-13 05:12:00 Registration code:-826510-16101-266644 54%
2009-10-22 23:45:48 Call Of Duty United Offensive 7 Serials 0%
2009-10-22 23:45:54 Command And Conquer The First Decade All Serials Needed 50%
2009-10-22 23:48:17 InST4LL KeyGen Serials - InDra Production 45%
2009-10-22 23:48:45 Macromedia Studio All Programs Seperate Serials 0%
2009-10-22 23:48:49 Microsoft Office 2007 Enterprise Serials 71%
2012-12-12 14:49:52 Idman607 Final incl crack-serials 71%
2012-12-13 16:28:00 VMWare Work Station 7.X.X (Legit Serials) 0%
2009-10-22 23:49:02 Norton Internet Security 2005 Registration Guide 0%
2011-09-08 09:58:40 Acoustica Mixcraft v1.10 Build 15 Registration Info by MaBi 60%
2009-10-22 23:47:49 F-Secure Internet Security 2007 - 2 Working Serials!!! 0%
2012-12-12 19:40:26 Microsoft Visual Basic 2008 Express Edition Registration key 50%
2012-12-12 11:01:51 Eset Smart Security 4 Serials update 03 May 2010 [by andry9898] 0%
2012-12-12 14:01:25 Helium Music Manager V7 (2009 And 2010) All Editions (Legit Serials) 0%
2011-09-08 10:44:59 Driver Guide Driver Guide Tool Kit 2.0.23 69%
2011-09-08 11:25:54 License Administration Kit 2.0.4 75%
2011-09-08 11:25:54 License Administration Kit v2.0 4 69%
2011-09-08 12:26:16 OBSERVER v4.0x License 71%
2011-09-08 13:20:49 WS License Manager 1.00 61%
2011-09-08 13:20:49 WS License Manager v1.00 68%
2009-10-17 06:19:00 Asp Component Bundle License Only 60%
2009-10-17 06:25:17 ITEKSOFT PDF Pro V6.09.3298 LICENSE 55%
2009-10-17 06:28:00 MindthinkTools V3.0 For Softimage XSI V3.5 License Key Only 51%
2009-10-17 06:30:02 PdfGrabber V1.1.0.30 Network License 51%
2009-10-17 06:30:07 PicaLoader 10 Users License V1.42 48%
2009-10-17 06:30:07 PicaLoader Site+.License V1.42 48%
2009-10-17 06:30:07 PicaLoader V1.42 Personal License 57%
2009-10-17 06:30:07 PicaLoader V1.42 Site License 64%
2009-10-22 23:46:30 Dynamic-CD Lite License/200 CDs 2.9.5.6 0%
2009-10-22 23:46:30 Dynamic-CD Personal License/200 CDs 2.9.5.6 0%
2009-10-22 23:46:30 Dynamic-CD Promotional License/100 CDs 2.9.5.6 0%
2009-10-22 23:46:30 Dynamic-CD Special License 2.9.5.6 0%
2009-10-22 23:46:30 Dynamic-CD Standard License/750 CDs 2.9.5.6 0%
2009-10-22 23:47:41 EiTheL TEAM License 67%
2009-10-22 23:47:59 G-force Gold License All 45%
2009-10-22 23:48:06 HardKey License Manager 3.2 80%
2009-10-22 23:48:37 License Name: Paul Jackson 54%
2009-10-22 23:48:37 License Plate Math 2.0 14%
2009-10-22 23:50:09 TextPad 4.7.3BEGIN LICENSE 53%
2011-09-08 10:24:52 CDCheck CORPORATE LICENSE 3.1.8.0 0%
2011-09-08 10:43:27 Dida Pro v2.20 Win95 License 0%
2011-09-08 10:45:40 Dynamic-CD Lite License/200 CDs 2.9.5.6 0%
2011-09-08 10:45:40 Dynamic-CD Personal License/200 CDs 2.9.5.6 0%
2011-09-08 10:45:41 Dynamic-CD Promotional License/100 CDs 2.9.5.6 0%
2011-09-08 10:45:41 Dynamic-CD Special license 2.9.5.6 0%
2011-09-08 10:45:41 Dynamic-CD Standard License/750 CDs 2.9.5.6 0%
2011-09-08 10:49:35 Enterprise system License 68%
2011-09-08 10:57:26 FreshDiagnose Personal License 6.6 0%
2011-09-08 10:57:26 FreshDiagnose Personal License 6.60 0%
2011-09-08 10:57:26 FreshUI Personal License 7.06 0%
2011-09-08 10:57:26 FreshView Personal License 2.0 0%
2011-09-08 11:02:34 GFI Faxmaker for NetWorks v6.0.5.5 License by FFF 0%
2011-09-08 11:05:56 HardKey License Manager 3.2 40%
2011-09-08 11:05:56 HardKey License Manager v3.2 0%
2011-09-08 11:06:26 Help Scribble v3.0.0 User License 0%
2011-09-08 11:17:17 iSDNTALK v1.x create LICENSE.INI A 0%
2011-09-08 11:17:17 iSDNTALK v1.x create LICENSE.INI B 14%
2011-09-08 11:17:17 iSDNTALK v1.x create LICENSE.INI C 0%
2011-09-08 11:17:19 iSDNTALK v1.x create LICENSE.INI D 0%
2011-09-08 11:25:54 License Plate Math 2.0 0%
2011-09-08 11:25:54 License Plate Math v2.0 0%
2011-09-08 11:29:21 Marathon Infinity Net Only License 0%
2011-09-08 11:34:54 Mr. Matt v1.59 License: 9999 0%
2011-09-08 11:34:54 Mr. Matt v2.06 32-bit License Number 64%
2011-09-08 11:34:54 Mr. Matt v2.06 License: 3928 0%
2011-09-08 12:24:59 Mr. Matt v1.59 License: 9999 0%
2011-09-08 12:24:59 Mr. Matt v2.06 32-bit License Number 64%
2011-09-08 12:24:59 Mr. Matt v2.06 License: 3928 0%
2011-09-08 12:25:20 Multimedia Xplorer v1.30b License to 0%
2011-09-08 12:38:57 PS FileRenamer corporate license 2.46 0%
2011-09-08 12:38:57 PS FileRenamer single license 2.46 0%
2011-09-08 12:49:13 SnagIt (Academic License) 10 68%
2011-09-08 12:49:48 Software License Tracker Pro 2.3 52%
2011-09-08 12:58:59 StormWindows v4.5 Corporate License 0%
2011-09-08 12:58:59 StormWindows v4.5 Demo License 61%
2011-09-08 12:58:59 StormWindows v4.5 Single PC License 0%
2011-09-08 13:16:32 WebDrive 10 Pack License 6.08 35%
2011-09-08 13:16:32 WebDrive 100 Pack License 6.08 0%
2011-09-08 13:16:32 WebDrive 20 Pack License 6.08 0%
2011-09-08 13:16:32 WebDrive 25 Pack License 6.08 0%
2011-09-08 13:16:32 WebDrive 250 Pack License 6.08 53%
2011-09-08 13:16:32 WebDrive 50 Pack License 6.08 0%
2011-09-08 13:16:32 WebDrive 500 Pack License 6.08 0%
2012-12-12 03:19:46 AVG 2012 Unilimited License 77%
2012-12-12 10:56:52 Eset 5 license 2016 65%
2012-12-13 18:12:36 Windows XP Volume License 0%
2009-10-17 06:20:50 CyberLink PowerDVD V6.0 Multi License 38%
2009-10-17 06:25:17 ITEKSOFT PDFSealer V6.05.1620 LICENSE 63%
2009-10-17 06:27:02 License Plate Math V2.0-SiBV 35%
2009-10-17 06:30:02 PdfGrabber V1.1.0.30 Single User License 0%
2009-10-17 06:33:30 Tribeworks IShell Commercial License V3.0.6 0%
2009-10-22 23:27:27 Avast PRO (School Release License) 76%
2009-10-22 23:46:30 Dynamic-CD Gold License/1500 CDs 2.9.5.6 0%
2009-10-22 23:47:54 FX PhysEquate 1.0 License Type: Departmental 60%